Terminal Aerodrome Forecast
Issued by NWS Twin Cities, MN

Home | Current Version | Previous Version | Text Only | Print | Product List | Glossary Off
Versions: 1 2 3 4 5 6 7 8 9 10 11 12 13 14 15 16 17 18

619
FTUS43 KMPX 131611 AAA
TAFEAU
TAF AMD
KEAU 131611Z 1316/1412 03007KT P6SM VCSH OVC018
      TEMPO 1316/1317 1/4SM SN FZFG OVC012
     FM131800 34012G18KT P6SM VCSH OVC012
     FM132300 33008KT P6SM BKN025 OVC050
     FM140300 VRB03KT P6SM OVC025=

USA.gov is the U.S. government's official web portal to all federal, state and local government web resources and services.